Погода в Авангарде

Россия / Самарская область     52°37′11″N   51°16′17″E
темп.,
°C
ветер,
м/с
пор.,
м/с
влажн.,
%
обл.,
%
осадки,
мм/ч
давл.,
гПа
погр.,
м
5 марта, пт
пт501:00−1зюз91592100 0.1 1003823
04:00−2юз81592100 0.1 1003588
07:00−2юз81494100 0.1 1002552
10:000юз81497100 2.5 1002723
13:000зюз81393100 0.8 1002941
16:000з71193100 1.0 1005765
19:00−2с5997100 0.7 1008379
22:00−8ссз239473 0.8 101121
6 марта, сб
сб601:00−11зсз229717 0.0 101321
04:00−12з229532 0.0 101521
07:00−12з229069 0.0 101521
10:00−9зюз359585 0.0 1016162
13:00−7зюз349391 0.0 1016221
16:00−7ссз239496 0.0 1015206
19:00−9ссв2295100 0.0 101425
22:00−9ссв3695100 0.0 1013159
7 марта, вс
вс701:00−12ссв4792100 0.0 1011197
04:00−14с4893100 0.0 1011163
07:00−17ссз459495 0.0 101283
10:00−15зсз249051 0.0 1013117
13:00−12зюз47899 0.0 1014263
16:00−11зюз599329 0.0 1013318
19:00−12юз5119678 0.0 1013206
22:00−11ююз6139582 0.0 1012315
8 марта, пн
пн801:00−8ююз81590100 0.0 1009523
04:00−7ююз111993100 0.3 1005830
07:00−4юз111891100 1.1 10031106
10:00−8зюз7138467 1.3 1006446
13:00−7юз6108436 0.0 1008382
16:00−5ю5109368 0.1 1006594
19:00−3ююз91595100 1.4 1003814
22:00−2юз101795100 3.1 1001990
9 марта, вт
вт901:00−7зюз91581100 1.6 1003838
04:00−12зюз8159060 1.6 1007423
07:00−14зюз6129574 0.0 1010261
10:00−13зюз5109470 0.0 1012290
13:00−11зюз579370 0.0 1013296
16:00−11юз479285 0.0 1013336
19:00−13юз3496100 0.0 101380
22:00−13юз3396100 0.0 101452